Location: Newark
(37.4028°N, 22.1369°E)
Time: 18:44:28
(UTC+00:00)

ISS - Visible Passes

Search period start: 22 September 2020 00:00
Search period end: 02 October 2020 00:00
Orbit: 419 x 420 km, 51.6° (Epoch: 23 September)

Date Brightness Start Highest point End Pass type
(mag) Time Alt. Az. Time Alt. Az. Time Alt. Az.
22 Sep -0.7 18:10:33 10° NNW 18:11:04 10° NNW 18:11:36 10° N visible
23 Sep -0.9 17:21:44 10° NW 17:23:25 13° NNW 17:25:06 10° N visible
30 Sep -1.0 18:19:02 10° NNW 18:19:43 13° N 18:19:43 13° N visible
01 Oct -1.4 17:32:00 10° N 17:33:43 13° NNE 17:34:05 13° NNE visible
